TimeEDT,TemperatureF,Dew PointF,Humidity,Sea Level PressureIn,VisibilityMPH,Wind Direction,Wind SpeedMPH,Gust SpeedMPH,PrecipitationIn,Events,Conditions,WindDirDegrees,DateUTC
12:53 AM,39.9,37.0,89,30.35,10.0,Calm,Calm,-,N/A,,Clear,0,2013-05-04 04:53:00
1:53 AM,37.9,36.0,93,30.34,10.0,Calm,Calm,-,N/A,,Clear,0,2013-05-04 05:53:00
2:53 AM,37.0,35.1,93,30.32,10.0,Calm,Calm,-,N/A,,Clear,0,2013-05-04 06:53:00
3:53 AM,37.0,34.0,89,30.31,10.0,Calm,Calm,-,N/A,,Clear,0,2013-05-04 07:53:00
4:53 AM,36.0,34.0,93,30.31,9.0,Calm,Calm,-,N/A,,Clear,0,2013-05-04 08:53:00
5:53 AM,35.1,33.1,92,30.32,9.0,Calm,Calm,-,N/A,,Clear,0,2013-05-04 09:53:00
6:53 AM,37.9,35.1,89,30.33,10.0,Calm,Calm,-,N/A,,Clear,0,2013-05-04 10:53:00
7:53 AM,45.0,41.0,86,30.33,9.0,Calm,Calm,-,N/A,,Clear,0,2013-05-04 11:53:00
8:53 AM,52.0,43.0,71,30.33,10.0,Variable,3.5,-,N/A,,Clear,0,2013-05-04 12:53:00
9:53 AM,55.9,43.0,62,30.32,10.0,ENE,9.2,-,N/A,,Partly Cloudy,70,2013-05-04 13:53:00
10:53 AM,59.0,44.1,58,30.30,10.0,NNE,5.8,-,N/A,,Partly Cloudy,30,2013-05-04 14:53:00
11:53 AM,61.0,44.1,54,30.30,10.0,Variable,6.9,-,N/A,,Clear,0,2013-05-04 15:53:00
12:53 PM,63.0,43.0,48,30.27,10.0,Variable,3.5,-,N/A,,Clear,0,2013-05-04 16:53:00
1:53 PM,66.0,43.0,43,30.26,10.0,ENE,6.9,16.1,N/A,,Clear,70,2013-05-04 17:53:00
2:53 PM,68.0,42.1,39,30.24,10.0,NE,10.4,-,N/A,,Clear,50,2013-05-04 18:53:00
3:53 PM,66.9,39.0,36,30.22,10.0,ESE,10.4,-,N/A,,Partly Cloudy,110,2013-05-04 19:53:00
4:53 PM,68.0,37.9,33,30.20,10.0,ESE,11.5,17.3,N/A,,Clear,120,2013-05-04 20:53:00
5:53 PM,68.0,37.9,33,30.20,10.0,ESE,9.2,-,N/A,,Clear,110,2013-05-04 21:53:00
6:53 PM,64.9,37.9,37,30.20,10.0,East,8.1,-,N/A,,Clear,100,2013-05-04 22:53:00
7:53 PM,61.0,39.9,46,30.19,10.0,ESE,3.5,-,N/A,,Clear,110,2013-05-04 23:53:00
8:53 PM,59.0,42.1,53,30.21,10.0,SSE,6.9,-,N/A,,Clear,160,2013-05-05 00:53:00
9:53 PM,55.9,42.1,60,30.23,10.0,Calm,Calm,-,N/A,,Clear,0,2013-05-05 01:53:00
10:53 PM,54.0,41.0,62,30.23,10.0,SSE,4.6,-,N/A,,Clear,150,2013-05-05 02:53:00
11:53 PM,48.9,41.0,74,30.24,10.0,Variable,4.6,-,N/A,,Clear,0,2013-05-05 03:53:00